アトラス彗星

C/2017 M4 ( ATLAS )

English version
Home page
Updated on October 23, 2017

---------------------------------------------------------------------

・ プロフィール

発見日 2017年6月21日
発見光度 18.3等
発見者 Asteroid Terrestrial-impact Last Alert System (ATLAS) Team

・ 写真集

・ 軌道要素

Epoch 2019 Feb. 6.0 TT = JDT 2458520.5
T 2019 Jan. 18.17700 TT                                 MPCW
q   3.2518229            (2000.0)            P               Q
z  -0.0007321      Peri.  167.61954     -0.34654485     -0.32823084
 +/-0.0000106      Node    65.86679     -0.92164657     +0.29347837
e   1.0023806      Incl.  105.65753     -0.17456879     -0.89785019
From 497 observations 2017 June 16-Sept. 29, mean residual 0".4.

・ 星図

・ 光度変化

        m1 = 6.0 + 5 logΔ + 10.0 log r

---------------------------------------------------------------------

軌道要素はM.P.E.C. 2017-T14に掲載されたものです。
星図はステラナビゲータ Ver.10 (アストロアーツ) で作成したものです。
光度グラフはComet for Windowsで作成したものです。

---------------------------------------------------------------------

Copyright(C) Seiichi Yoshida (comet@aerith.net). All rights reserved.